sat.trackr.live / text

‹ back to catalog

STARLINK-3545

NORAD 51855 · 2022-022D

PAYLOAD ACTIVE UNKNOWN

§ Identity

Operator
Country
US
Launch date
2022-03-03
Launch site
AFETR
Launch vehicle
Mass (kg)
RCS (m²)

Purposes: comms

External: N2YO · Heavens-Above · Gunter

§ Orbital elements

Epoch: 2026-09-20T03:38:08.290176Z

Period
93.85 min
Inclination
53.1587°
Eccentricity
0.0001268
Mean motion
15.34392601 rev/d
Perigee alt
461.9 km
Apogee alt
463.6 km
Semi-major
6,840.9 km
B*
3.8614e-5
RAAN
211.0497°
Arg perigee
84.6109°
Mean anomaly
275.5038°
Rev number
25,253

§ Raw data

STARLINK-35451 51855U 22022D   26263.15148484  .00000928  00000+0  38614-4 0  99902 51855  53.1587 211.0497 0001268  84.6109 275.5038 15.34392601252535

JSON: /api/v1/satellites/51855 · /tle

For live sub-satellite position, see the globe view (requires WebGL).

§ Visibility from observer

Set your observer location to see the next 7 days of passes ≥ 10°. The values pass through the URL so the page stays shareable.

No JS? Fill the form by hand. The geolocation button needs JavaScript.